Location: Eberbach
(49.4690°N, 8.9930°E)
Time: 01:45:25
(UTC+02:00)

ISS - Pass Details

Date: 01 October 2021
Orbit: 417 x 423 km, 51.6° (Epoch: 20 October)

Event Time Altitude Azimuth Distance (km) Brightness Sun altitude
Rises 21:43:07 0° 285° (WNW) 2,368 1.3 -26.1°
Reaches altitude 10° 21:45:37 10° 266° (W) 1,502 -0.2 -26.5°
Enters shadow 21:46:46 15° 249° (WSW) 1,217 -1.0 -26.7°
